Other Public Products
Issued by NWS Charleston, SC

Current Version | Previous Version | Graphics & Text | Print | Product List | Glossary On
Versions: 1 2 3 4 5 6 7 8 9 10 11 12 13 14 15 16 17 18 19 20 21 22 23 24 25 26 27 28 29 30 31 32 33 34 35 36 37 38 39 40 41 42 43 44 45 46 47 48 49 50
218 FPUS82 KCHS 232312 OPUCHS TEST...KCHS/KSAV Gateway Observations...TEST National Weather Service Charleston SC 700 PM EDT MON APR 23 2018 NOTE: "fair" indicates few or no clouds below 12,000 feet with no significant weather and/or obstructions to visibility. SCZ050-WAZ558-NCZ071-TXZ119-213-PAZ071-DCZ001-FLZ074-172-MI076- NYZ176-178-MAZ016-IL014-TNZ027-NJZ106-GAZ044-MD014-240000- ...Gateway Observations for Charleston International... CITY SKY/WX TMP DP RH WIND PRES REMARKS Chas Airport LGT RAIN 67 65 93 SE33G46 29.96F FOG Seattle MOSUNNY 67 37 33 NW18 30.24F Charlotte HVY RAIN 59 57 93 E13G26 30.10R FOG Dallas DFW MOSUNNY 75 50 41 NW7G16 29.98F Dallas Love MOSUNNY 76 52 43 NW8 29.99F Philladelphia MOCLDY 63 26 24 S9G20 30.38F Wash National MOCLDY 63 39 41 SE15 30.37R Baltimore MOCLDY 63 43 48 S9G21 30.36S Miami LGT RAIN 75 72 90 SE6 29.98R Detroit CLOUDY 69 41 36 E9 30.13F Newark FAIR 56 36 47 E5 30.42F Laguardia FAIR 57 35 43 SE12 30.42S J F K FAIR 51 41 68 SE8 30.45S Boston Logan FAIR 52 32 46 SE13 30.42S Ft. Lauderdale MOCLDY 80 76 87 S12 29.97R Chicago O`Hare CLOUDY 59 25 27 NE14 30.10R Chicago Midway CLOUDY 58 27 30 N13 30.10S Houston Bush FAIR 79 52 38 NW13G18 29.96F Houston Hobby FAIR 79 48 33 NW17 29.96F Nashville PTSUNNY 61 57 87 E7 29.90R Atlanta PTSUNNY 65 62 90 NE12 29.86F $$ GAZ044-118-TXZ119-213-NCZ071-DCZ001-MDZ014-506-PAZ021-071-NJZ106- NYZ176-178-MAZ106-OHZ011-021-055-MIZ076-KYZ091-ILZ014-INZ047- MNZ060-ONZ431-240000- ...Gateway Observations for Savannah International... CITY SKY/WX TMP DP RH WIND PRES REMARKS Savannah Arpt CLOUDY 70 68 93 SE13 29.93S Atlanta PTSUNNY 65 62 90 NE12 29.86F Charlotte HVY RAIN 59 57 93 E13G26 30.10R FOG Dallas DFW MOSUNNY 75 50 41 NW7G16 29.98F Houston Bush FAIR 79 52 38 NW13G18 29.96F Wash National MOCLDY 63 39 41 SE15 30.37R Wash Dulles CLOUDY 62 43 49 SE15G21 30.34S Baltimore MOCLDY 63 43 48 S9G21 30.36S Philadelphia MOCLDY 63 26 24 S9G20 30.38F Newark FAIR 56 36 47 E5 30.42F Laguardia FAIR 57 35 43 SE12 30.42S J F K FAIR 51 41 68 SE8 30.45S Boston FAIR 52 32 46 SE13 30.42S Pittsburg CLOUDY 67 36 31 SE10 30.19S Akron CLOUDY 66 36 32 SW14 30.16S Cleveland CLOUDY 71 39 31 S8 30.16S Cincinnati LGT RAIN 54 51 90 E14 30.06F Columbus CLOUDY 54 48 78 E14 30.17F Detroit CLOUDY 69 41 36 E9 30.13F Chicago O`Hare CLOUDY 59 25 27 NE14 30.10R Minneapolis FAIR 68 36 30 SE3 30.12F Indianapolis LGT RAIN 55 54 96 E14 30.03F Toronto Canada PTSUNNY 59 19 21 E10 30.21F $$

USA.gov is the U.S. government's official web portal to all federal, state and local government web resources and services.